Location: St Paul
(33.9360°N, 83.4200°W)
Time: 11:04:40
(UTC-05:00)

Cosmos 1339 Rocket - Pass Details

Date: 06 October 2017
Orbit: 941 x 1007 km, 82.9° (Epoch: 11 December)

Event Time Altitude Azimuth Distance (km) Brightness Sun altitude
Rises 21:03:37 0° 354° (N) 3,739 7.8 -24.2°
Reaches altitude 10° 21:06:11 10° 356° (N) 2,783 7.0 -24.7°
Maximum altitude 21:12:36 82° 84° (E) 1,010 4.4 -26.0°
Enters shadow 21:15:27 35° 169° (SSE) 1,533 5.3 -26.6°
